When you browse on this site, cookies collect data to enhance your experience and personalize the content and advertising you see.
Visit our Privacy Policy to learn more. By continuing to use the site, you agree to this use of cookies and data.
  • Em Portugal
  • Lista de países
  • Para 7 dias
  • Temperatura da água
  • Mapas de satélite
  • Mapa do tempo
  • Widgets de tempo
  • user-avatar
    Iniciar Sessão

    Previsão horária em Seversk

    Hoje, 27 Maio, Segunda-feira

    Tempo Temperatura Precipitação Vento Pressão Humidade
    00:00 +17°C° 0 mm 3 m/s 752 mmHg 91%
    01:00 +16°C° 0 mm 3 m/s 752 mmHg 92%
    02:00 +16°C° 0 mm 3 m/s 752 mmHg 92%
    03:00 +15°C° 0 mm 2 m/s 752 mmHg 92%
    04:00 +16°C° 0 mm 2 m/s 753 mmHg 91%
    05:00 +16°C° 0 mm 2 m/s 753 mmHg 90%
    06:00 +16°C° 0 mm 2 m/s 754 mmHg 90%
    07:00 +18°C° 0 mm 3 m/s 754 mmHg 83%
    08:00 +20°C° 0 mm 3 m/s 755 mmHg 76%
    09:00 +21°C° 0 mm 4 m/s 755 mmHg 67%
    10:00 +22°C° 0 mm 4 m/s 755 mmHg 62%
    11:00 +23°C° 0 mm 4 m/s 755 mmHg 57%
    12:00 +25°C° 0 mm 5 m/s 755 mmHg 52%
    13:00 +25°C° 0 mm 5 m/s 755 mmHg 51%
    14:00 +25°C° 0 mm 5 m/s 755 mmHg 50%
    15:00 +26°C° 0 mm 5 m/s 756 mmHg 49%
    16:00 +25°C° 0 mm 4 m/s 756 mmHg 52%
    17:00 +25°C° 0 mm 4 m/s 756 mmHg 55%
    18:00 +25°C° 0 mm 3 m/s 756 mmHg 58%
    19:00 +23°C° 0 mm 2 m/s 756 mmHg 63%
    20:00 +21°C° 0 mm 2 m/s 756 mmHg 68%
    21:00 +20°C° 0 mm 1 m/s 757 mmHg 73%
    22:00 +19°C° 0 mm 1 m/s 757 mmHg 75%
    23:00 +17°C° 0 mm 0 m/s 757 mmHg 77%

    Amanhã, 28 Maio, Terça-feira

    Tempo Temperatura Precipitação Vento Pressão Humidade
    00:00 +16°C° 0 mm 0 m/s 758 mmHg 79%
    01:00 +16°C° 0 mm 0 m/s 758 mmHg 80%
    02:00 +16°C° 0 mm 0 m/s 758 mmHg 81%
    03:00 +15°C° 0 mm 0 m/s 758 mmHg 82%
    04:00 +16°C° 0 mm 0 m/s 758 mmHg 81%
    05:00 +17°C° 0 mm 0 m/s 758 mmHg 80%
    06:00 +17°C° 0 mm 0 m/s 758 mmHg 79%
    07:00 +19°C° 0 mm 0 m/s 759 mmHg 73%
    08:00 +21°C° 0 mm 0 m/s 759 mmHg 67%
    09:00 +23°C° 0 mm 0 m/s 759 mmHg 60%
    10:00 +24°C° 0 mm 0 m/s 759 mmHg 55%
    11:00 +25°C° 0 mm 0 m/s 759 mmHg 51%
    12:00 +26°C° 0 mm 0 m/s 759 mmHg 46%
    13:00 +27°C° 0 mm 0 m/s 759 mmHg 44%
    14:00 +27°C° 0 mm 0 m/s 758 mmHg 42%
    15:00 +29°C° 0 mm 1 m/s 758 mmHg 40%
    16:00 +29°C° 0 mm 1 m/s 758 mmHg 43%
    17:00 +29°C° 0 mm 1 m/s 758 mmHg 45%
    18:00 +28°C° 0 mm 2 m/s 758 mmHg 48%
    19:00 +27°C° 0 mm 2 m/s 758 mmHg 52%
    20:00 +25°C° 0 mm 2 m/s 758 mmHg 56%
    21:00 +23°C° 0 mm 2 m/s 758 mmHg 61%
    22:00 +21°C° 0 mm 2 m/s 758 mmHg 63%
    23:00 +21°C° 0 mm 2 m/s 758 mmHg 65%

    Depois de amanhã, 29 Maio, Quarta-feira

    Tempo Temperatura Precipitação Vento Pressão Humidade
    00:00 +20°C° 0 mm 2 m/s 758 mmHg 67%
    01:00 +19°C° 0 mm 2 m/s 758 mmHg 69%
    02:00 +20°C° 0 mm 1 m/s 758 mmHg 71%
    03:00 +19°C° 0 mm 1 m/s 758 mmHg 73%
    04:00 +20°C° 0 mm 1 m/s 759 mmHg 74%
    05:00 +20°C° 0 mm 1 m/s 759 mmHg 75%
    06:00 +19°C° 0 mm 2 m/s 759 mmHg 76%
    07:00 +21°C° 0 mm 2 m/s 759 mmHg 71%
    08:00 +24°C° 0 mm 3 m/s 759 mmHg 65%
    09:00 +26°C° 0 mm 4 m/s 759 mmHg 60%
    10:00 +27°C° 0 mm 4 m/s 759 mmHg 57%
    11:00 +27°C° 0 mm 4 m/s 759 mmHg 54%
    12:00 +28°C° 0 mm 5 m/s 759 mmHg 52%
    13:00 +29°C° 0 mm 5 m/s 758 mmHg 51%
    14:00 +29°C° 0 mm 5 m/s 758 mmHg 51%
    15:00 +30°C° 0 mm 5 m/s 758 mmHg 50%
    16:00 +29°C° 0 mm 4 m/s 758 mmHg 52%
    17:00 +29°C° 0 mm 4 m/s 758 mmHg 55%
    18:00 +29°C° 0 mm 3 m/s 757 mmHg 57%
    19:00 +27°C° 0 mm 3 m/s 758 mmHg 61%
    20:00 +25°C° 0 mm 3 m/s 758 mmHg 65%
    21:00 +24°C° 0 mm 3 m/s 758 mmHg 69%
    22:00 +22°C° 0 mm 3 m/s 758 mmHg 71%
    23:00 +21°C° 0 mm 3 m/s 758 mmHg 72%

    30 Maio, Quinta-feira

    Tempo Temperatura Precipitação Vento Pressão Humidade
    00:00 +20°C° 0 mm 2 m/s 758 mmHg 74%
    01:00 +20°C° 0 mm 2 m/s 758 mmHg 75%
    02:00 +19°C° 0 mm 2 m/s 758 mmHg 75%
    03:00 +19°C° 0 mm 2 m/s 758 mmHg 76%
    04:00 +19°C° 0 mm 2 m/s 758 mmHg 76%
    05:00 +19°C° 0 mm 2 m/s 758 mmHg 76%
    06:00 +19°C° 0 mm 2 m/s 758 mmHg 77%
    07:00 +21°C° 0 mm 3 m/s 758 mmHg 70%
    08:00 +23°C° 0 mm 4 m/s 758 mmHg 64%
    09:00 +26°C° 0 mm 4 m/s 758 mmHg 58%
    10:00 +27°C° 0 mm 5 m/s 758 mmHg 54%
    11:00 +29°C° 0 mm 5 m/s 758 mmHg 49%
    12:00 +30°C° 0 mm 5 m/s 758 mmHg 45%
    13:00 +30°C° 0 mm 5 m/s 758 mmHg 44%
    14:00 +30°C° 0 mm 4 m/s 757 mmHg 44%
    15:00 +32°C° 0 mm 4 m/s 757 mmHg 43%
    16:00 +32°C° 0 mm 4 m/s 757 mmHg 46%
    17:00 +30°C° 0 mm 3 m/s 757 mmHg 50%
    18:00 +30°C° 0 mm 3 m/s 757 mmHg 53%
    19:00 +28°C° 0 mm 3 m/s 757 mmHg 57%
    20:00 +26°C° 0 mm 2 m/s 757 mmHg 61%
    21:00 +24°C° 0 mm 2 m/s 757 mmHg 64%
    22:00 +24°C° 0 mm 2 m/s 757 mmHg 67%
    23:00 +23°C° 0 mm 2 m/s 757 mmHg 70%

    31 Maio, Sexta-feira

    Tempo Temperatura Precipitação Vento Pressão Humidade
    00:00 +21°C° 0 mm 2 m/s 757 mmHg 72%
    01:00 +21°C° 0 mm 2 m/s 757 mmHg 74%
    02:00 +20°C° 0 mm 2 m/s 757 mmHg 75%
    03:00 +20°C° 0 mm 2 m/s 757 mmHg 76%
    04:00 +20°C° 0 mm 2 m/s 757 mmHg 76%
    05:00 +20°C° 0 mm 2 m/s 757 mmHg 75%
    06:00 +20°C° 0 mm 2 m/s 757 mmHg 74%
    07:00 +22°C° 0 mm 3 m/s 757 mmHg 68%
    08:00 +25°C° 0 mm 3 m/s 757 mmHg 63%
    09:00 +27°C° 0 mm 3 m/s 757 mmHg 58%
    10:00 +28°C° 0 mm 4 m/s 757 mmHg 53%
    11:00 +30°C° 0 mm 4 m/s 757 mmHg 47%
    12:00 +32°C° 0 mm 4 m/s 757 mmHg 42%
    13:00 +33°C° 0 mm 4 m/s 756 mmHg 42%
    14:00 +33°C° 0 mm 4 m/s 756 mmHg 42%
    15:00 +33°C° 0 mm 4 m/s 756 mmHg 41%
    16:00 +33°C° 0 mm 3 m/s 755 mmHg 44%
    17:00 +31°C° 0 mm 3 m/s 755 mmHg 48%
    18:00 +31°C° 0 mm 3 m/s 755 mmHg 51%
    19:00 +29°C° 0 mm 3 m/s 755 mmHg 54%
    20:00 +27°C° 0 mm 3 m/s 755 mmHg 57%
    21:00 +25°C° 0 mm 2 m/s 755 mmHg 59%
    22:00 +25°C° 0 mm 2 m/s 755 mmHg 61%
    23:00 +24°C° 0 mm 2 m/s 755 mmHg 63%

    1 Junho, Sábado

    Tempo Temperatura Precipitação Vento Pressão Humidade
    00:00 +24°C° 0 mm 2 m/s 755 mmHg 65%
    01:00 +23°C° 0 mm 2 m/s 755 mmHg 66%
    02:00 +23°C° 0 mm 2 m/s 755 mmHg 68%
    03:00 +21°C° 0 mm 3 m/s 754 mmHg 70%
    04:00 +22°C° 0 mm 3 m/s 754 mmHg 71%
    05:00 +22°C° 0 mm 3 m/s 755 mmHg 71%
    06:00 +22°C° 0 mm 3 m/s 755 mmHg 72%
    07:00 +24°C° 0 mm 3 m/s 755 mmHg 66%
    08:00 +26°C° 0 mm 3 m/s 755 mmHg 61%
    09:00 +28°C° 0 mm 4 m/s 755 mmHg 55%
    10:00 +30°C° 0 mm 4 m/s 754 mmHg 49%
    11:00 +32°C° 0 mm 4 m/s 754 mmHg 43%
    12:00 +34°C° 0 mm 5 m/s 754 mmHg 37%
    13:00 +34°C° 0 mm 4 m/s 754 mmHg 38%
    14:00 +34°C° 0 mm 4 m/s 754 mmHg 39%
    15:00 +34°C° 0 mm 4 m/s 753 mmHg 40%
    16:00 +33°C° 0 mm 4 m/s 753 mmHg 43%
    17:00 +33°C° 0 mm 4 m/s 753 mmHg 45%
    18:00 +33°C° 0 mm 3 m/s 753 mmHg 48%
    19:00 +30°C° 0 mm 3 m/s 753 mmHg 50%
    20:00 +29°C° 0 mm 3 m/s 753 mmHg 52%
    21:00 +27°C° 0 mm 3 m/s 753 mmHg 54%
    22:00 +26°C° 0 mm 2 m/s 753 mmHg 56%
    23:00 +25°C° 0 mm 2 m/s 753 mmHg 58%
    Mostrar mais